Volver al catálogo

CZ-4 DEB

ActivoSSO
NORAD 26200·DEBRIS·🇨🇳 China

Lanzado Oct 14, 1999 desde Taiyuan Satellite Launch Center

Loading…

Próximos Pases (próximas 24 horas)

TLE

ActualizadoSource: Space-Track

Época: Sep 14, 2026, 21:46 UTC

1 26200U 99057CN  26257.90706634  .00003212  00000-0  43539-3 0  9992
2 26200  98.3020 247.4922 0041107  20.0203 340.2608 14.79089901409783

Sigue CZ-4 DEB en tiempo real con AllMySat

Download on the App Store